Change the Weather History Date:

Tuesday, April 1, 2014

  Actual Average (KSTC) Record (KSTC)
Temperature  
Mean Temperature 26 °F 37 °F  
Max Temperature 33 °F 48 °F 77 °F (2010)
Min Temperature 19 °F 26 °F 3 °F (1975)
Degree Days  
Heating Degree Days 39 28  
Month to date heating degree days 28  
Since 1 July heating degree days 7578  
Cooling Degree Days 0 0  
Month to date cooling degree days 0  
Year to date cooling degree days 0  
Moisture  
Dew Point 21 °F    
Average Humidity 76    
Maximum Humidity 94    
Minimum Humidity 66    
Precipitation  
Precipitation 0.00 in 0.07 in 0.70 in (1896)
Month to date precipitation 0.07  
Year to date precipitation 2.86  
Snow  
Snow 0.00 in 0.20 in 2.90 in (2009)
Month to date snowfall 0.2  
Since 1 July snowfall 42.9  
Snow Depth -    
Sea Level Pressure  
Sea Level Pressure 29.85 in    
Wind  
Wind Speed 11 mph (West)    
Max Wind Speed 26 mph    
Max Gust Speed 34 mph    
Visibility 8 miles    
Events Snow    
T = Trace of Precipitation, MM = Missing Value Source: NWS Daily Summary

Daily Weather History Graph

Daily Weather History Graph

Search for Another Location

Airport or City:

Trip Planner

Search our weather history database for the weather conditions in past years. The results will help you decide how hot, cold, wet, or windy it might be!

Date:

Astronomy

Apr. 01, 2014 Rise Set
Actual Time 6:55 AM CDT 7:43 PM CDT
Civil Twilight 6:26 AM CDT 8:13 PM CDT
Nautical Twilight 5:50 AM CDT 8:48 PM CDT
Astronomical Twilight 5:13 AM CDT 9:25 PM CDT
Moon 7:53 AM CDT (4/1) 10:13 PM CDT (4/1)
Length of Visible Light 13h 47m
Length of Day
12h 47m
Waxing Crescent, 5% of the Moon is Illuminated
Apr 1
Waxing Crescent
Apr 7
First Quarter
Apr 15
Full
Apr 22
Last Quarter
Apr 29
New

Hourly Weather History & Observations

Time (CDT) Temp. Windchill Dew Point Humidity Pressure Visibility Wind Dir Wind Speed Gust Speed Precip Events Conditions
12:16 AM 31.8 °F 27.3 °F 29.3 °F 90% 29.41 in 4.0 mi ESE 4.6 mph - N/A   Overcast
12:36 AM 31.5 °F 26.8 °F 29.3 °F 92% 29.41 in 4.0 mi East 4.6 mph - N/A   Overcast
12:55 AM 31.3 °F - 29.5 °F 93% 29.43 in 5.0 mi Calm Calm - N/A   Overcast
1:16 AM 31.5 °F - 29.8 °F 94% 29.43 in 5.0 mi Calm Calm - N/A   Overcast
1:35 AM 31.3 °F - 29.5 °F 93% 29.44 in 7.0 mi Calm Calm - N/A   Overcast
1:55 AM 31.6 °F - 29.8 °F 93% 29.45 in 7.0 mi Calm Calm - N/A   Overcast
2:16 AM 31.6 °F 27.0 °F 30.0 °F 94% 29.46 in 5.0 mi West 4.6 mph - N/A   Overcast
2:35 AM 30.4 °F 18.0 °F 28.4 °F 92% 29.48 in 2.5 mi WNW 19.6 mph 28.8 mph N/A Snow Light Snow
2:55 AM 28.0 °F 16.1 °F 25.3 °F 90% 29.51 in 3.0 mi WNW 16.1 mph 29.9 mph N/A Snow Light Snow
3:16 AM 26.4 °F 12.8 °F 22.6 °F 86% 29.53 in 7.0 mi WNW 19.6 mph 31.1 mph N/A   Overcast
3:35 AM 24.8 °F 10.7 °F 19.8 °F 81% 29.55 in 10.0 mi WNW 19.6 mph 34.5 mph N/A   Overcast
3:55 AM 24.1 °F 9.8 °F 19.0 °F 81% 29.57 in 10.0 mi WNW 19.6 mph 28.8 mph N/A   Overcast
4:16 AM 23.5 °F 9.0 °F 17.6 °F 78% 29.59 in 10.0 mi WNW 19.6 mph 29.9 mph N/A   Overcast
4:35 AM 22.6 °F 5.8 °F 16.7 °F 78% 29.61 in 10.0 mi WNW 26.5 mph 33.4 mph N/A   Overcast
4:55 AM 22.1 °F 7.6 °F 16.3 °F 79% 29.62 in 10.0 mi WNW 18.4 mph 31.1 mph N/A   Overcast
5:16 AM 21.9 °F 6.5 °F 16.2 °F 78% 29.64 in 10.0 mi WNW 20.7 mph 27.6 mph N/A   Overcast
5:35 AM 21.2 °F 5.6 °F 14.7 °F 76% 29.67 in 10.0 mi West 20.7 mph 27.6 mph N/A Snow Light Snow
5:55 AM 20.8 °F 5.9 °F 14.4 °F 76% 29.69 in 10.0 mi WNW 18.4 mph 31.1 mph N/A Snow Light Snow
6:16 AM 20.7 °F 5.7 °F 14.7 °F 78% 29.71 in 5.0 mi WNW 18.4 mph 25.3 mph N/A Snow Light Snow
6:35 AM 20.1 °F 6.4 °F 15.1 °F 81% 29.73 in 3.0 mi WNW 15.0 mph 23.0 mph N/A Snow Light Snow
6:55 AM 19.4 °F 6.0 °F 14.9 °F 83% 29.75 in 2.0 mi West 13.8 mph 25.3 mph N/A Snow Light Snow
7:16 AM 19.2 °F 5.3 °F 14.7 °F 83% 29.77 in 2.0 mi WNW 15.0 mph 25.3 mph N/A Snow Light Snow
7:35 AM 19.9 °F 3.5 °F 13.5 °F 76% 29.79 in 7.0 mi WNW 21.9 mph 31.1 mph N/A Snow Light Snow
7:55 AM 19.4 °F 5.5 °F 13.3 °F 77% 29.80 in 3.0 mi WNW 15.0 mph 24.2 mph N/A Snow Light Snow
8:16 AM 19.4 °F 5.0 °F 14.0 °F 80% 29.81 in 1.2 mi WNW 16.1 mph 26.5 mph N/A Snow Light Snow
8:35 AM 19.4 °F 4.5 °F 14.5 °F 81% 29.81 in 1.2 mi WNW 17.3 mph 24.2 mph N/A Snow Light Snow
8:55 AM 19.4 °F 5.5 °F 14.7 °F 82% 29.81 in 1.2 mi WNW 15.0 mph 24.2 mph N/A Snow Light Snow
9:16 AM 20.1 °F 6.9 °F 15.3 °F 81% 29.83 in 2.0 mi WNW 13.8 mph 20.7 mph N/A Snow Light Snow
9:35 AM 21.0 °F 8.6 °F 14.5 °F 76% 29.85 in 10.0 mi WNW 12.7 mph 20.7 mph N/A   Mostly Cloudy
9:55 AM 21.9 °F 8.7 °F 14.2 °F 72% 29.86 in 10.0 mi WNW 15.0 mph 24.2 mph N/A   Mostly Cloudy
10:16 AM 23.0 °F 8.7 °F 14.4 °F 70% 29.88 in 10.0 mi West 18.4 mph 21.9 mph N/A   Mostly Cloudy
10:35 AM 23.4 °F 9.2 °F 14.5 °F 69% 29.89 in 10.0 mi West 18.4 mph 24.2 mph N/A   Scattered Clouds
10:55 AM 25.2 °F 12.0 °F 15.8 °F 68% 29.90 in 10.0 mi WNW 17.3 mph - N/A   Scattered Clouds
11:16 AM 26.1 °F 14.0 °F 16.5 °F 67% 29.91 in 10.0 mi West 15.0 mph 20.7 mph N/A   Scattered Clouds
11:35 AM 26.2 °F 14.7 °F 16.2 °F 66% 29.92 in 10.0 mi WNW 13.8 mph 20.7 mph N/A   Scattered Clouds
11:56 AM 27.7 °F 16.1 °F 17.8 °F 66% 29.94 in 10.0 mi West 15.0 mph 24.2 mph N/A   Scattered Clouds
12:16 PM 28.4 °F 16.6 °F 18.5 °F 66% 29.95 in 10.0 mi West 16.1 mph 21.9 mph N/A   Scattered Clouds
12:35 PM 28.9 °F 16.9 °F 19.6 °F 68% 29.95 in 10.0 mi West 17.3 mph 24.2 mph N/A   Mostly Cloudy
12:56 PM 29.1 °F 17.1 °F 19.6 °F 68% 29.94 in 10.0 mi West 17.3 mph 23.0 mph N/A   Mostly Cloudy
1:16 PM 30.2 °F 19.3 °F 20.8 °F 68% 29.94 in 10.0 mi West 15.0 mph 23.0 mph N/A   Scattered Clouds
1:35 PM 30.6 °F 19.0 °F 21.0 °F 68% 29.95 in 10.0 mi West 17.3 mph - N/A   Clear
1:56 PM 31.5 °F 20.5 °F 21.7 °F 67% 29.96 in 10.0 mi West 16.1 mph 20.7 mph N/A   Clear
2:16 PM 32.0 °F 22.1 °F 22.6 °F 68% 29.96 in 10.0 mi West 13.8 mph 20.7 mph N/A   Scattered Clouds
2:35 PM 31.8 °F 21.8 °F 22.1 °F 67% 29.96 in 10.0 mi West 13.8 mph 19.6 mph N/A   Scattered Clouds
2:56 PM 32.0 °F 22.1 °F 22.8 °F 69% 29.97 in 10.0 mi WSW 13.8 mph 20.7 mph N/A   Scattered Clouds
3:16 PM 32.5 °F 21.5 °F 23.4 °F 69% 29.97 in 10.0 mi West 17.3 mph 21.9 mph N/A   Scattered Clouds
3:35 PM 32.0 °F 21.6 °F 22.8 °F 69% 29.98 in 10.0 mi West 15.0 mph 19.6 mph N/A   Scattered Clouds
3:56 PM 32.9 °F 23.2 °F 23.4 °F 68% 29.98 in 10.0 mi West 13.8 mph - N/A   Scattered Clouds
4:16 PM 32.5 °F 23.2 °F 23.5 °F 69% 29.98 in 10.0 mi West 12.7 mph 20.7 mph N/A   Scattered Clouds
4:35 PM 33.8 °F 24.3 °F 24.6 °F 69% 29.98 in 10.0 mi West 13.8 mph - N/A   Clear
4:56 PM 33.8 °F 23.9 °F 24.4 °F 69% 29.99 in 10.0 mi West 15.0 mph - N/A   Clear
5:16 PM 33.6 °F 24.6 °F 24.1 °F 68% 29.99 in 10.0 mi West 12.7 mph - N/A   Clear
5:35 PM 33.8 °F 24.8 °F 24.6 °F 69% 30.00 in 10.0 mi West 12.7 mph 17.3 mph N/A   Clear
5:56 PM 33.8 °F 24.3 °F 24.6 °F 69% 30.00 in 10.0 mi West 13.8 mph 17.3 mph N/A   Clear
6:16 PM 33.1 °F 24.9 °F 24.3 °F 70% 30.01 in 10.0 mi West 10.4 mph - N/A   Clear
6:35 PM 32.7 °F 23.9 °F 24.3 °F 71% 30.03 in 10.0 mi West 11.5 mph - N/A   Clear
6:56 PM 32.0 °F 23.6 °F 23.5 °F 71% 30.04 in 10.0 mi West 10.4 mph 18.4 mph N/A   Clear
7:16 PM 31.6 °F 24.4 °F 23.5 °F 72% 30.05 in 10.0 mi West 8.1 mph - N/A   Clear
7:35 PM 30.4 °F 22.9 °F 22.8 °F 73% 30.06 in 10.0 mi West 8.1 mph - N/A   Clear
7:56 PM 29.5 °F 19.9 °F 22.8 °F 76% 30.06 in 10.0 mi West 11.5 mph - N/A   Clear
8:16 PM 29.1 °F 19.4 °F 22.5 °F 76% 30.07 in 10.0 mi West 11.5 mph - N/A   Clear
8:35 PM 28.4 °F 20.4 °F 21.9 °F 77% 30.08 in 10.0 mi West 8.1 mph - N/A   Clear
8:56 PM 28.0 °F 19.3 °F 21.6 °F 77% 30.09 in 10.0 mi West 9.2 mph - N/A   Clear
9:16 PM 27.5 °F 19.3 °F 21.4 °F 78% 30.09 in 10.0 mi West 8.1 mph - N/A   Clear
9:35 PM 27.1 °F 18.9 °F 21.2 °F 78% 30.09 in 10.0 mi West 8.1 mph - N/A   Clear
9:55 PM 26.6 °F 17.5 °F 21.0 °F 79% 30.11 in 10.0 mi West 9.2 mph - N/A   Clear
10:16 PM 26.4 °F 18.9 °F 20.5 °F 78% 30.11 in 10.0 mi West 6.9 mph - N/A   Clear
10:35 PM 26.2 °F 18.6 °F 20.5 °F 79% 30.11 in 10.0 mi West 6.9 mph - N/A   Clear
10:55 PM 25.7 °F 19.0 °F 20.3 °F 80% 30.11 in 10.0 mi WNW 5.8 mph - N/A   Clear
11:15 PM 25.5 °F 18.7 °F 20.3 °F 81% 30.12 in 10.0 mi WNW 5.8 mph - N/A   Clear
11:35 PM 25.3 °F 18.5 °F 19.4 °F 78% 30.12 in 10.0 mi NW 5.8 mph - N/A   Clear
11:56 PM 24.8 °F 17.9 °F 18.5 °F 77% 30.13 in 10.0 mi WNW 5.8 mph - N/A   Clear